Home > Weather > Citrus Heights > Past weeks

Flag for U.S.A. Weather for the Past 2 Weeks in Citrus Heights, California, U.S.A.

Now
68 °F

Sunny.


Feels Like: 68 °F
Forecast: 45 / 71 °F
Wind: 9 mph from North

Location: Mather Field

Current Time: Feb 13, 2016 at 2:43:21 PM

Latest Report: Feb 13, 2016 at 1:45 PM


Visibility: 10 mi

Pressure: 30.19 "Hg

Humidity: 49%

Dew point: 48 °F

Location of Citrus HeightsLocation

Historic Weather in Citrus Heights — Graph

°F

Citrus Heights Temperature Yesterday

Maximum temperature yesterday: 68 °F (at 12:45 PM)
Minimum temperature yesterday: 41 °F (at 6:50 AM)
Average temperature yesterday: 54 °F

High & Low Weather Summary for the Past Weeks

 TemperatureHumidityPressure
High73 °F (Feb 9, 2:45 PM)100% (Jan 29, 7:45 PM)30.48 "Hg (Jan 29, 7:45 PM)
Low32 °F (Feb 3, 2:55 AM)26% (Feb 1, 12:45 PM)29.70 "Hg (Jan 31, 2:45 PM)
Average51 °F75%30.23 "Hg
* Reported Jan 29 12:03 PM — Feb 13 12:55 PM, Citrus Heights, Weather by CustomWeather, © 2016

Note: Actual official high and low records may vary slightly from our data, if they occured in-between our weather recording intervals... More about our weather records

Advertising

Citrus Heights Weather History for the Previous 24 Hours

 ConditionsComfort  
Time TempWeatherWind HumidityBarometerVisibility
12:55 PM
Sat, Feb 13
68 °FSunny.9 mph53%30.23 "Hg10 mi
11:45 AM64 °FSunny.7 mph56%30.25 "Hg10 mi
10:50 AM63 °FSunny.7 mph59%30.26 "Hg10 mi
9:45 AM57 °FSunny.5 mph67%30.26 "Hg10 mi
8:55 AM54 °FSunny.3 mph77%30.26 "Hg10 mi
7:55 AM45 °FSunny.No wind100%30.26 "Hg10 mi
6:45 AM45 °FClear.No wind93%30.24 "Hg10 mi
5:45 AM43 °FClear.No wind100%30.23 "Hg10 mi
4:55 AM43 °FClear.No wind100%30.21 "Hg10 mi
3:50 AM45 °FClear.No wind100%30.20 "Hg10 mi
2:55 AM46 °FClear.No wind100%30.21 "Hg10 mi
10:45 PM
Fri, Feb 12
50 °FPassing clouds.No wind88%30.18 "Hg10 mi
9:45 PM50 °FPassing clouds.No wind94%30.18 "Hg10 mi
8:45 PM54 °FPassing clouds.5 mph82%30.18 "Hg10 mi
7:45 PM54 °FPassing clouds.No wind82%30.17 "Hg10 mi
6:45 PM59 °FPassing clouds.3 mph72%30.17 "Hg10 mi
5:45 PM63 °FPassing clouds.3 mph59%30.16 "Hg10 mi
3:45 PM68 °FScattered clouds.3 mph49%30.15 "Hg10 mi
2:45 PM68 °FScattered clouds.5 mph49%30.15 "Hg10 mi
Weather by CustomWeather, © 2016

See weather overviewHow to use our weather pages